User: anonymous   Login
Location: Caltech
(34.1382°N, 118.1253°W)
Time: 15:48:07
(UTC-07:00)
Language:

Hamsat - Orbit

View from above orbital plane
View from above orbital plane
View from above satellite
View from above satellite

Ground track
Ground track

The orbit data is extracted from the following two-line orbital elements,

1 28650U 05017B   14297.46606286  .00003949  00000-0  45505-3 0  8890
2 28650 097.5639 296.0297 0026700 091.6499 268.7776 14.85980140512427
Epoch (UTC): 24 October 2014 11:11:07
Eccentricity: 0.0026700
inclination: 97.5639°
perigee height: 592 km
apogee height: 629 km
right ascension of ascending node: 296.0297°
argument of perigee: 91.6499°
revolutions per day: 14.85980140
mean anomaly at epoch: 268.7776°
orbit number at epoch: 51242

The dashed part of the orbit path shows where the satellite is in the earth's shadow,  

DLR